Location: Newark
(35.8833°N, 14.5000°E)
Time: 18:07:25
(UTC+00:00)

BEESAT - Pass Details

Date: 12 November 2019
Orbit: 701 x 709 km, 98.6° (Epoch: 15 December)

Event Time Altitude Azimuth Distance (km) Brightness Sun altitude
Rises 17:10:10 0° 2° (N) 3,093 ? -15.0°
Reaches altitude 10° 17:12:35 10° 353° (N) 2,172 ? -15.5°
Maximum altitude 17:16:49 33° 290° (WNW) 1,168 ? -16.4°
Drops below altitude 10° 17:21:03 10° 227° (SW) 2,162 ? -17.2°
Sets 17:23:28 0° 217° (SW) 3,078 ? -17.7°
